Wind_Speed
32 31 31 30 29 28 27 26 25 22 20 18 18 17 16 15 15 14 14 13 12 12 12 12 12 12 12 10 9 9 9 8 8 8 9 9 9 10 10 10 10 10 11 11
33 32 31 31 30 28 27 25 24 23 21 19 18 17 16 16 15 15 15 14 13 12 12 12 13 13 12 11 11 11 10 9 9 10 10 10 10 10 10 9 10 11 10 10
34 33 33 33 31 29 27 26 24 23 20 19 19 19 18 17 16 15 16 16 15 14 13 13 13 13 13 12 12 11 11 10 11 11 11 11 11 11 10 10 11 11 10 11
33 33 34 32 31 30 28 26 25 23 21 20 19 19 18 17 17 16 16 16 16 16 14 13 13 13 13 13 13 12 12 11 12 12 11 12 11 11 11 11 11 11 12 12
33 33 33 33 32 31 30 28 25 24 22 21 20 19 18 18 17 17 17 17 17 17 16 15 14 14 13 14 14 14 13 12 12 12 13 13 12 12 12 12 13 13 13 14
33 33 33 32 32 31 29 28 26 25 22 21 21 20 18 18 18 18 17 17 18 18 17 15 14 14 14 15 15 15 14 13 12 13 13 14 13 13 13 14 14 14 15 15
33 33 32 32 31 30 30 28 27 25 24 22 21 20 19 19 19 19 18 18 18 17 16 15 15 15 15 15 16 15 14 14 13 14 14 14 15 15 15 15 15 16 16 17
33 33 32 31 30 30 29 28 27 26 25 24 23 22 21 21 20 19 19 19 19 18 17 16 16 16 15 15 15 14 14 14 14 15 15 14 15 15 15 16 16 16 17 17
35 33 32 31 30 29 29 28 28 27 27 26 25 24 23 22 21 21 20 20 19 19 18 17 17 17 16 16 15 15 15 15 15 15 15 15 16 16 16 17 17 18 19 20
35 34 33 32 31 29 29 28 28 28 27 26 26 25 25 24 23 22 22 20 20 19 19 17 17 17 17 16 16 16 16 16 15 16 16 17 18 17 18 18 19 20 21 21
37 35 33 32 31 29 29 28 28 28 27 25 25 24 24 23 22 22 21 20 20 20 18 17 17 17 16 17 17 16 16 16 16 17 17 18 18 18 19 20 21 21 21 22
38 36 35 33 31 29 28 28 28 28 28 27 25 25 25 24 23 22 21 20 20 19 18 18 18 17 17 17 17 17 17 17 17 17 18 18 18 19 20 21 21 22 22 22
37 36 35 34 32 29 29 29 29 29 28 27 26 26 25 24 23 22 22 22 21 20 19 18 18 18 17 17 18 18 18 18 18 18 18 18 18 19 19 20 21 22 22 24
36 35 34 33 32 31 30 30 30 30 29 29 28 28 28 26 25 25 24 24 23 22 21 20 20 19 20 19 19 20 20 20 19 18 19 20 20 20 21 22 23 23 23 25
34 34 34 33 32 31 31 31 31 31 30 31 31 30 29 28 27 27 26 25 24 23 23 22 22 22 21 21 21 21 22 21 20 21 21 22 22 22 23 23 24 25 26 27
34 35 34 32 31 31 31 32 31 31 31 31 31 30 28 28 27 27 26 26 25 25 24 24 23 23 23 23 22 22 22 22 22 22 22 23 24 24 24 25 26 27 28 28
34 34 34 32 31 31 31 31 32 32 31 30 29 30 28 28 27 26 25 25 24 24 24 24 24 25 25 25 24 23 23 23 23 23 23 24 24 25 26 27 28 28 30 30
33 32 32 32 31 30 30 30 29 29 30 31 30 31 29 27 26 26 25 24 24 24 24 25 25 25 25 25 24 24 24 25 25 25 25 25 25 26 27 28 29 30 30 30
32 32 32 31 30 29 28 28 29 28 28 27 28 27 26 26 26 26 26 25 25 25 25 26 25 26 26 26 26 26 26 26 25 25 25 26 27 27 29 29 30 30 30 30
29 30 30 30 29 29 28 27 27 26 25 26 26 25 25 25 26 26 25 25 25 25 25 25 25 26 26 26 26 26 26 26 26 26 26 26 27 28 28 29 29 29 29 30
24 26 27 28 28 27 27 27 26 25 25 24 24 23 23 24 24 24 25 25 24 24 24 24 25 25 25 25 26 26 26 25 26 26 26 27 27 28 29 29 29 29 29 30
22 23 24 25 25 25 25 25 25 25 25 24 24 24 24 23 23 23 24 24 24 24 24 24 24 25 25 25 26 26 26 25 25 26 26 27 27 28 28 29 29 29 29 30
21 21 21 22 22 23 23 24 24 25 25 24 23 23 24 23 22 23 23 23 23 24 24 24 24 24 24 24 24 24 24 25 25 25 26 27 27 27 28 27 28 29 30 30
19 18 19 20 20 20 21 22 23 23 22 22 22 22 22 22 22 22 23 23 24 23 23 23 22 22 23 23 23 23 23 24 25 25 25 25 26 26 26 27 28 28 29 29
18 19 19 19 19 18 18 18 19 20 20 20 20 21 21 21 21 21 21 21 21 21 21 21 22 22 22 22 21 22 23 23 24 24 24 25 25 26 26 27 28 28 29 29
17 17 17 17 17 17 17 17 17 18 19 20 20 20 20 20 20 20 21 20 20 21 20 20 21 21 20 20 21 22 22 23 23 23 24 25 25 26 27 28 28 29 30 30
16 16 16 16 16 16 16 15 16 17 18 18 19 19 19 19 19 19 19 19 20 20 20 20 20 20 20 21 20 21 22 22 23 24 25 26 27 27 28 29 29 29 29 30
Wind_Direction
222 224 226 230 233 237 241 246 250 253 254 257 262 265 268 276 281 284 291 297 304 309 311 315 314 312 310 306 307 307 308 306 304 306 308 307 303 301 300 298 299 299 298 301
221 222 224 227 231 235 239 244 248 250 253 256 259 264 269 275 277 280 285 288 292 299 303 306 305 306 307 309 310 306 304 306 305 308 309 308 306 306 305 301 300 301 298 302
221 222 225 227 230 234 239 243 247 249 252 255 258 262 267 272 273 277 283 282 283 290 292 294 296 298 302 302 304 306 304 303 301 300 304 305 304 305 306 303 302 300 299 301
222 224 227 229 232 236 239 242 245 248 249 252 254 258 263 267 268 272 279 283 286 288 288 287 291 292 293 295 296 300 301 299 299 297 299 303 302 301 302 302 301 298 299 300
224 226 229 230 232 235 238 241 243 246 249 251 252 255 260 265 270 272 278 283 290 289 284 283 285 288 288 293 294 295 296 295 295 295 295 297 298 299 300 300 299 297 297 298
225 227 230 232 233 235 238 240 241 244 248 251 253 254 259 264 270 272 277 282 288 290 283 285 284 288 291 291 296 294 293 291 292 294 295 294 293 294 294 295 295 297 297 297
228 230 232 233 235 236 238 240 241 244 246 249 253 255 258 262 268 272 275 280 285 287 283 284 285 286 286 292 295 294 289 289 291 293 295 295 293 296 294 293 294 296 298 298
230 232 233 234 237 237 239 240 241 244 246 247 250 253 256 260 266 270 273 277 279 280 281 280 280 283 283 289 292 293 291 291 292 295 295 297 296 296 297 295 294 295 296 299
232 234 235 235 237 237 239 241 242 244 245 246 248 251 255 259 264 268 271 275 277 277 278 277 276 277 281 285 288 290 292 293 293 296 296 295 295 295 295 296 297 297 298 298
233 235 236 235 236 238 239 240 241 243 244 245 247 249 254 259 261 263 268 272 274 277 276 276 276 273 275 281 286 288 292 294 292 293 295 295 294 291 292 294 296 297 299 299
235 236 236 235 235 236 238 239 240 241 241 242 244 249 254 257 260 262 266 270 276 279 276 274 277 272 273 279 284 287 291 293 293 294 294 294 294 293 292 293 296 297 299 300
235 236 236 235 235 235 237 238 240 240 241 242 244 249 251 255 258 261 265 268 274 276 275 273 275 276 276 278 282 285 288 290 292 295 295 297 297 297 296 296 296 298 299 300
235 235 235 236 235 235 237 237 239 242 242 242 244 247 251 255 256 257 262 266 271 274 275 274 277 279 278 280 283 285 286 290 291 292 294 296 297 298 299 298 299 299 299 300
235 235 235 235 235 235 236 238 240 243 241 242 245 248 250 253 255 257 261 264 265 269 271 271 273 277 278 279 281 283 284 287 289 289 291 293 294 296 298 298 299 299 300 302
234 236 236 235 235 235 237 239 241 241 242 244 246 247 249 253 255 257 260 262 263 265 267 269 270 274 278 279 281 282 282 283 285 287 289 290 292 294 296 297 298 299 300 302
234 235 235 238 238 237 238 240 242 243 243 244 243 244 247 251 254 256 259 260 262 265 267 269 271 274 276 278 280 281 281 282 284 285 288 290 291 292 294 297 299 300 301 302
234 234 235 238 239 239 240 239 242 244 244 244 245 246 251 252 253 256 257 259 261 264 267 269 272 274 276 278 279 278 279 281 281 282 285 288 290 292 293 295 298 300 302 303
235 235 235 236 238 241 241 241 243 244 244 245 249 250 250 250 252 254 254 256 260 264 267 269 272 275 276 276 276 277 279 281 281 282 283 286 290 291 293 296 298 299 301 303
233 233 233 233 235 237 240 241 242 244 244 245 248 248 247 248 251 252 253 257 261 264 267 270 273 274 275 275 274 275 277 281 283 283 283 286 289 291 294 296 298 300 300 302
230 229 231 232 234 237 238 239 241 243 245 248 249 248 247 250 251 252 254 257 261 264 268 271 273 274 274 274 273 274 275 278 281 282 283 286 289 292 295 297 298 299 301 303
226 227 230 231 233 235 238 240 242 243 246 246 246 247 248 250 251 253 256 259 261 265 268 270 271 272 271 272 274 274 275 278 280 282 284 286 289 292 295 297 298 300 302 304
223 226 229 231 232 235 238 241 242 244 246 246 246 246 247 250 252 255 257 260 262 264 266 270 271 271 271 273 275 275 276 277 279 281 284 286 289 293 296 297 298 300 302 304
222 226 228 228 231 234 238 241 243 243 245 245 246 247 248 250 252 255 258 259 261 263 265 269 270 271 273 274 275 275 275 276 279 281 283 286 289 293 296 298 300 301 303 305
220 224 228 229 231 235 238 240 241 242 243 245 246 248 249 250 253 256 258 260 261 263 264 266 267 269 272 273 274 275 276 278 280 283 286 289 292 294 297 300 301 303 304 305
220 225 228 230 232 235 238 238 238 241 242 244 246 248 250 252 254 256 258 260 262 263 263 265 267 268 270 271 273 275 277 279 281 284 287 291 294 297 298 300 302 303 303 305
220 223 225 227 228 232 235 236 237 239 240 242 245 246 248 250 253 255 257 259 262 262 262 265 268 268 269 271 273 275 278 280 282 286 289 293 297 299 300 301 302 303 304 305
221 223 225 225 226 228 230 232 234 236 238 241 243 243 244 247 251 254 255 257 260 262 265 267 268 269 271 273 275 277 279 281 284 288 291 294 297 299 300 301 301 302 304 305
Height
5858 5863 5867 5871 5875 5878 5881 5884 5887 5890 5892 5894 5895 5896 5897 5898 5898 5898 5897 5897 5896 5895 5894 5893 5892 5891 5890 5888 5887 5885 5884 5883 5882 5881 5880 5879 5878 5877 5876 5875 5874 5873 5872 5871
5852 5857 5862 5865 5869 5873 5876 5879 5882 5885 5888 5890 5891 5892 5894 5894 5894 5894 5894 5894 5893 5892 5891 5890 5890 5889 5887 5886 5885 5883 5882 5881 5880 5879 5878 5877 5876 5875 5873 5873 5872 5871 5870 5869
5847 5852 5856 5860 5864 5868 5871 5875 5878 5881 5885 5886 5887 5889 5890 5890 5891 5891 5891 5890 5890 5889 5888 5888 5887 5886 5885 5884 5883 5881 5880 5879 5878 5877 5876 5875 5874 5873 5871 5870 5870 5869 5868 5867
5842 5847 5851 5858 5860 5863 5866 5870 5873 5876 5879 5881 5883 5885 5885 5886 5887 5887 5887 5887 5886 5885 5885 5884 5884 5883 5882 5882 5880 5879 5878 5877 5876 5875 5874 5873 5871 5870 5869 5868 5867 5866 5865 5864
5836 5840 5845 5850 5854 5857 5861 5865 5868 5871 5874 5876 5878 5880 5881 5882 5882 5883 5884 5883 5883 5882 5881 5880 5880 5880 5879 5878 5877 5876 5874 5873 5873 5872 5871 5870 5869 5868 5867 5866 5864 5863 5862 5861
5830 5835 5839 5845 5848 5852 5857 5859 5863 5866 5869 5871 5874 5876 5878 5878 5878 5879 5879 5879 5879 5878 5877 5877 5876 5876 5875 5874 5873 5872 5871 5870 5869 5868 5867 5866 5865 5864 5863 5862 5861 5860 5859 5857
5824 5829 5833 5838 5842 5847 5852 5856 5858 5861 5864 5866 5869 5871 5873 5873 5873 5874 5875 5875 5875 5874 5874 5873 5873 5872 5871 5870 5869 5867 5866 5866 5865 5865 5863 5862 5861 5861 5860 5859 5858 5856 5855 5853
5818 5823 5830 5833 5836 5841 5845 5848 5852 5855 5858 5861 5863 5865 5866 5867 5868 5869 5870 5870 5870 5870 5869 5869 5869 5868 5867 5866 5865 5864 5863 5862 5862 5860 5859 5858 5857 5857 5856 5855 5854 5852 5850 5849
5814 5819 5823 5827 5830 5835 5838 5842 5846 5849 5852 5855 5857 5859 5861 5862 5863 5864 5865 5865 5865 5865 5864 5864 5864 5864 5863 5862 5861 5861 5859 5858 5858 5856 5855 5854 5854 5853 5852 5851 5850 5848 5846 5844
5807 5812 5816 5820 5824 5829 5832 5836 5839 5843 5846 5848 5851 5853 5856 5857 5858 5859 5860 5860 5860 5860 5859 5859 5858 5858 5858 5858 5857 5857 5856 5855 5854 5853 5851 5851 5850 5849 5848 5846 5845 5843 5841 5840
5800 5805 5809 5814 5818 5822 5826 5830 5833 5837 5839 5842 5845 5848 5850 5851 5852 5853 5854 5855 5855 5855 5854 5854 5854 5853 5853 5853 5853 5852 5851 5850 5849 5848 5848 5846 5845 5844 5843 5842 5840 5839 5837 5835
5793 5798 5803 5808 5812 5816 5820 5824 5827 5830 5834 5836 5839 5841 5843 5845 5847 5848 5849 5850 5850 5850 5850 5849 5849 5849 5849 5848 5848 5847 5847 5846 5845 5844 5843 5842 5841 5840 5838 5837 5835 5833 5832 5830
5787 5791 5796 5801 5806 5810 5814 5817 5820 5824 5827 5830 5833 5835 5837 5839 5840 5842 5843 5844 5844 5844 5844 5844 5844 5844 5844 5844 5843 5843 5842 5841 5841 5840 5839 5838 5837 5835 5834 5832 5830 5828 5826 5824
5780 5785 5790 5795 5799 5803 5807 5810 5813 5816 5819 5823 5826 5828 5830 5832 5834 5835 5837 5837 5838 5838 5839 5839 5839 5839 5839 5838 5838 5838 5837 5836 5836 5835 5834 5833 5832 5830 5829 5827 5825 5823 5820 5818
5773 5778 5783 5787 5792 5796 5800 5803 5806 5810 5813 5816 5818 5820 5822 5825 5827 5829 5830 5830 5831 5832 5832 5833 5833 5834 5833 5833 5833 5832 5831 5831 5830 5829 5828 5827 5826 5824 5823 5821 5819 5816 5814 5812
5766 5771 5775 5780 5784 5788 5792 5796 5799 5802 5805 5807 5810 5812 5814 5817 5819 5821 5822 5824 5825 5825 5826 5826 5827 5827 5827 5827 5826 5826 5825 5825 5824 5823 5822 5821 5819 5818 5816 5814 5812 5810 5807 5804
5759 5764 5768 5773 5777 5781 5784 5788 5791 5794 5797 5800 5802 5804 5806 5808 5811 5813 5815 5816 5817 5818 5819 5820 5820 5820 5820 5820 5820 5819 5819 5818 5818 5817 5816 5815 5813 5811 5809 5808 5805 5803 5800 5797
5753 5757 5761 5765 5770 5773 5777 5781 5784 5787 5789 5792 5794 5796 5798 5801 5803 5805 5807 5809 5810 5811 5812 5813 5813 5813 5813 5813 5813 5812 5811 5811 5811 5810 5809 5808 5806 5804 5802 5800 5798 5795 5793 5790
5746 5750 5754 5758 5763 5767 5770 5774 5777 5779 5782 5784 5786 5788 5790 5793 5795 5798 5800 5801 5803 5804 5804 5805 5805 5806 5806 5806 5806 5805 5805 5804 5803 5803 5802 5801 5799 5797 5795 5793 5790 5788 5785 5782
5740 5744 5748 5752 5756 5760 5763 5767 5770 5772 5774 5776 5779 5781 5783 5786 5788 5790 5792 5794 5795 5796 5797 5797 5798 5798 5798 5798 5798 5798 5797 5797 5796 5795 5794 5793 5791 5790 5787 5785 5783 5780 5777 5774
5734 5738 5742 5746 5750 5753 5756 5759 5762 5765 5767 5769 5771 5774 5776 5778 5780 5782 5784 5786 5787 5788 5789 5789 5790 5790 5790 5790 5790 5790 5789 5789 5788 5788 5787 5785 5784 5782 5780 5777 5775 5772 5769 5766
5729 5733 5736 5740 5743 5746 5750 5752 5755 5758 5760 5762 5765 5767 5769 5771 5773 5775 5777 5779 5780 5780 5781 5782 5782 5782 5782 5782 5782 5782 5781 5781 5781 5780 5779 5778 5776 5774 5772 5770 5767 5764 5762 5758
5724 5727 5731 5734 5737 5740 5743 5746 5748 5751 5753 5756 5758 5760 5762 5764 5767 5769 5770 5771 5772 5773 5774 5774 5775 5775 5775 5774 5774 5774 5774 5774 5773 5772 5771 5770 5768 5767 5765 5762 5759 5757 5754 5751
5720 5723 5726 5729 5732 5735 5737 5739 5742 5744 5747 5749 5752 5754 5756 5758 5760 5761 5763 5764 5765 5766 5766 5767 5767 5767 5767 5767 5767 5767 5767 5766 5766 5765 5763 5762 5761 5759 5757 5754 5751 5749 5746 5742
5715 5718 5721 5724 5727 5729 5731 5734 5736 5738 5741 5743 5745 5747 5749 5751 5753 5754 5756 5757 5758 5759 5759 5760 5760 5760 5760 5760 5760 5760 5760 5759 5759 5757 5756 5755 5753 5751 5749 5746 5743 5741 5738 5734
5712 5714 5716 5719 5722 5725 5727 5729 5731 5733 5735 5738 5739 5741 5743 5745 5747 5748 5749 5751 5751 5752 5753 5753 5753 5753 5753 5753 5753 5753 5753 5752 5751 5750 5749 5747 5745 5743 5741 5738 5736 5733 5730 5726
5708 5710 5713 5715 5718 5720 5722 5725 5727 5729 5731 5733 5734 5736 5737 5739 5741 5742 5744 5745 5745 5746 5746 5747 5747 5747 5747 5747 5747 5747 5746 5745 5744 5743 5742 5740 5738 5735 5733 5730 5728 5725 5722 5718